Back to catalog

CZ-6A DEB

AlivePO
NORAD 55228·DEBRIS·🇨🇳 China

Launched Nov 11, 2022 from Taiyuan Satellite Launch Center

Loading…

Next Passes (next 24 hours)

TLE

FreshSource: Space-Track

Epoch: Sep 14, 2026, 04:53 UTC

1 55228U 22151WV  26257.20350971  .00008353  00000-0  10749-2 0  9994
2 55228  98.6238 335.0288 0056970 346.4065  13.5608 14.80247348198310

Track CZ-6A DEB in real time with AllMySat

Download on the App Store